Location: Caltech
(34.1382°N, 118.1253°W)
Time: 19:28:34
(UTC-08:00)

COSMOS 2428 - Visible Passes

Search period start: 22 November 2014 00:00
Search period end: 02 December 2014 00:00
Orbit: 842 x 860 km, 71.0° (Epoch: 22 November)

Date Brightness Start Highest point End Pass type
(mag) Time Alt. Az. Time Alt. Az. Time Alt. Az.
29 Nov 5.0 18:54:45 10° N 18:54:56 11° N 18:54:56 11° N visible
30 Nov 4.6 18:42:27 10° N 18:43:36 15° N 18:43:36 15° N visible
01 Dec 4.1 18:30:09 10° N 18:32:30 22° NNE 18:32:30 22° NNE visible
01 Dec 5.5 20:14:30 10° NW 20:14:35 10° NW 20:14:35 10° NW visible
